STARLINK-36238, 68563

Orbit data source: Space-Track

STARLINK-36238, 68563 is a payload satellite owned by SpaceX/Seattle (US) in LEO that was launched on Thu, 02 Apr 2026 UTC via an FALCON 9 launch vehicle from the Air Force Eastern Test Range (AFETR). Payload-class satellites include a variety of spacecraft equipped with specific instruments for various scientific and technological missions. These include communications satellites like Starlink; space stations such as the ISS; scientific satellites like the Hubble; Earth observation satellites from companies like Planet Labs, Umbra, and HawkEye 360; GPS; miniature CubeSats for education and research; and military/defense satellites.

Loading next visibility...
Identifier
68563, 2026-070X
Orbit
LEO
Country
Flag of USUS
Related business
Manufacturer
SpaceX/Seattle
Mission
Operational Commercial Communications
Bus & Motor
STARLINK V2MO, Unknown motor
Mass
575 kg wet, ~530 kg dry
Launch date (UTC)
2026-04-02 (5 months ago)
Launch vehicle
FALCON 9
Launch site
Air Force Eastern Test Range (AFETR)
Object type
Payload
Rocket body
Debris
Shape & HBR
Box + 1 Pan, 17.7 m
Radar Cross Section
41.120 m², Large (>1 m²)

Expand to show TLE details & history
Last TLE update: 9 hours ago

TLE from 9 hours ago
0 STARLINK-36238
1 68563U 26070X   26247.04111686  .00016665  00000-0  50320-3 0  9998
2 68563  53.1570 250.4281 0001439  98.8645 261.2521 15.34404355 23918
Epoch: 2026-09-04T00:59Z
TLE epoch observation values (Epoch: 2026-09-04T00:59:12.496Z)
Latitude
Longitude
-107.5446°
Altitude
463.741 km
Speed
7.636 km/s
True Right ascension
16h 41m 42s
True Declination
0° 00' 00"
Sunlit
Object was in daylight at epoch
Visualization orbit readout
Latitude
Unknown
Longitude
Unknown
Altitude
Unknown
Speed
Unknown
Apparent Right ascension
Unknown
Apparent Declination
Unknown
Sunlit
N/A
Visualization observer readout
Local Sidereal Time
02:04:15
Azimuth
Unknown
Elevation
Unknown
Doppler factor
Unknown
Orbital elements
Apogee altitude
463.932 km
Perigee altitude
461.963 km
Semi-major axis
6,841.085 km
Eccentricity
0.00014
Inclination
53.157°
RAAN
250.4281°
Arg. of periapsis
98.8645°
True anomaly
261.2358°
Mean anomaly
261.2521°
Eccentric anomaly
261.24395°
Mean motion
3.8358 °/min
Orbital period
93.85 mins
BSTAR
0.0005032
Loading maneuver chart data...
Computing Atmospheric mass density...
Loading historical data...
Loading historical data...
Loading historical data...
Loading historical data...
Loading historical data...
Loading historical data...
Loading historical data...

Documentation

Showing up to 5 results
|